sat.trackr.live / text

‹ back to catalog

STARLINK-31787

NORAD 59650 · 2024-082V

PAYLOAD ACTIVE UNKNOWN

§ Identity

Operator
Country
US
Launch date
2024-05-03
Launch site
AFETR
Launch vehicle
Mass (kg)
RCS (m²)

Purposes: comms

External: N2YO · Heavens-Above · Gunter

§ Orbital elements

Epoch: 2026-05-25T03:18:33.844608Z

Period
94.27 min
Inclination
43.0008°
Eccentricity
0.0000750
Mean motion
15.27581464 rev/d
Perigee alt
482.5 km
Apogee alt
483.6 km
Semi-major
6,861.2 km
B*
1.3434e-5
RAAN
68.0717°
Arg perigee
266.7227°
Mean anomaly
93.3538°
Rev number
11,670

§ Raw data

STARLINK-317871 59650U 24082V   26145.13789172  .00000108  00000+0  13434-4 0  99942 59650  43.0008  68.0717 0000750 266.7227  93.3538 15.27581464116704

JSON: /api/v1/satellites/59650 · /tle

For live sub-satellite position, see the globe view (requires WebGL).

§ Visibility from observer

Set your observer location to see the next 7 days of passes ≥ 10°. The values pass through the URL so the page stays shareable.

No JS? Fill the form by hand. The geolocation button needs JavaScript.